WZZ4D1 EBBR-LFPG

Flight info

Callsign WZZ4D1
Flight time N/A
Altitude 17000
Route LNO
Aircraft A20N/M-V/N

Departure

Time N/A
Airport Brussels Airport (EBBR)

Arrival

Time 2026-05-04 21:27
Airport Charles de Gaulle International Airport (LFPG)
Time Latitude Longitude Altitude Speed Heading
2026-05-04 21:16 49.17897 2.50047 10128 ft 301 kts 269°
2026-05-04 21:16 49.17857 2.46881 9790 ft 299 kts 269°
2026-05-04 21:16 49.17807 2.43722 9477 ft 298 kts 269°
2026-05-04 21:17 49.17744 2.40540 9108 ft 297 kts 268°
2026-05-04 21:17 49.17672 2.37419 8726 ft 295 kts 267°
2026-05-04 21:17 49.17506 2.34321 8377 ft 293 kts 264°
2026-05-04 21:17 49.17265 2.31252 7961 ft 292 kts 256°
2026-05-04 21:18 49.16445 2.28434 7552 ft 290 kts 236°
2026-05-04 21:18 49.15287 2.25875 7187 ft 287 kts 232°
2026-05-04 21:18 49.14114 2.23446 6819 ft 286 kts 232°
2026-05-04 21:18 49.12934 2.21039 6424 ft 285 kts 231°
2026-05-04 21:19 49.11735 2.18616 6063 ft 283 kts 232°
2026-05-04 21:19 49.10570 2.16288 5860 ft 275 kts 232°
2026-05-04 21:19 49.09419 2.14002 5690 ft 266 kts 232°
2026-05-04 21:19 49.08319 2.11825 5516 ft 256 kts 232°
2026-05-04 21:20 49.07226 2.09756 5319 ft 246 kts 223°
2026-05-04 21:20 49.05795 2.08470 5078 ft 233 kts 190°
2026-05-04 21:20 49.04225 2.08526 4730 ft 225 kts 156°
2026-05-04 21:20 49.02963 2.09822 4333 ft 219 kts 129°
2026-05-04 21:21 49.02025 2.11615 4015 ft 216 kts 123°
2026-05-04 21:21 49.01184 2.13520 3968 ft 216 kts 112°
2026-05-04 21:21 49.00707 2.15680 3969 ft 214 kts 98°
2026-05-04 21:21 49.00584 2.17939 3970 ft 214 kts 87°
2026-05-04 21:22 49.00697 2.20163 3966 ft 212 kts 82°
2026-05-04 21:22 49.00875 2.22392 3961 ft 208 kts 82°
2026-05-04 21:22 49.01025 2.24504 3887 ft 198 kts 83°
2026-05-04 21:22 49.01148 2.26577 3689 ft 193 kts 84°
2026-05-04 21:23 49.01251 2.28556 3482 ft 186 kts 84°
2026-05-04 21:23 49.01347 2.30507 3206 ft 183 kts 84°
2026-05-04 21:23 49.01440 2.32422 2938 ft 179 kts 84°
2026-05-04 21:23 49.01530 2.34275 2679 ft 170 kts 84°
2026-05-04 21:24 49.01615 2.35997 2438 ft 159 kts 84°
2026-05-04 21:24 49.01697 2.37618 2219 ft 149 kts 84°
2026-05-04 21:24 49.01777 2.39193 2062 ft 151 kts 84°
2026-05-04 21:24 49.01856 2.40760 1877 ft 142 kts 82°
2026-05-04 21:25 49.01930 2.42210 1689 ft 137 kts 82°
2026-05-04 21:25 49.02005 2.43654 1517 ft 135 kts 82°
2026-05-04 21:25 49.02079 2.45074 1344 ft 135 kts 82°
2026-05-04 21:25 49.02153 2.46490 1162 ft 135 kts 83°
2026-05-04 21:26 49.02228 2.47905 980 ft 135 kts 83°
2026-05-04 21:26 49.02304 2.49329 799 ft 135 kts 84°
2026-05-04 21:26 49.02380 2.50748 618 ft 134 kts 84°
2026-05-04 21:26 49.02462 2.52163 455 ft 134 kts 84°
2026-05-04 21:27 49.02528 2.53533 380 ft 121 kts 83°
2026-05-04 21:27 49.02586 2.54588 379 ft 74 kts 85°
2026-05-04 21:27 49.02599 2.55129 378 ft 32 kts 99°
2026-05-04 21:27 49.02531 2.55413 380 ft 20 kts 116°
2026-05-04 21:28 49.02513 2.55467 379 ft 0 kts 115°
2026-05-04 21:28 49.02513 2.55468 379 ft 1 kts 115°
2026-05-04 21:28 49.02487 2.55549 380 ft 9 kts 121°
2026-05-04 21:28 49.02425 2.55611 380 ft 13 kts 172°
2026-05-04 21:29 49.02313 2.55625 379 ft 18 kts 175°
2026-05-04 21:29 49.02179 2.55641 376 ft 20 kts 174°
2026-05-04 21:29 49.02034 2.55660 373 ft 21 kts 175°
2026-05-04 21:29 49.01893 2.55625 368 ft 21 kts 249°
2026-05-04 21:30 49.01876 2.55405 370 ft 20 kts 265°
2026-05-04 21:30 49.01864 2.55191 370 ft 20 kts 264°
2026-05-04 21:30 49.01851 2.54978 369 ft 20 kts 265°
2026-05-04 21:30 49.01767 2.54863 368 ft 20 kts 173°
2026-05-04 21:31 49.01471 2.54900 362 ft 19 kts 176°
2026-05-04 21:31 49.01355 2.54936 360 ft 17 kts 161°
2026-05-04 21:31 49.01231 2.54991 357 ft 19 kts 166°
2026-05-04 21:32 49.01095 2.55042 353 ft 21 kts 166°
2026-05-04 21:32 49.00942 2.55115 347 ft 24 kts 162°
2026-05-04 21:32 49.00771 2.55186 341 ft 26 kts 164°
2026-05-04 21:32 49.00669 2.55283 337 ft 11 kts 58°
2026-05-04 21:33 49.00711 2.55333 338 ft 8 kts 56°
2026-05-04 21:33 49.00730 2.55476 339 ft 21 kts 82°
2026-05-04 21:33 49.00745 2.55718 342 ft 22 kts 82°
2026-05-04 21:33 49.00766 2.55922 346 ft 18 kts 80°
2026-05-04 21:34 49.00785 2.56106 348 ft 17 kts 80°
2026-05-04 21:34 49.00801 2.56273 353 ft 14 kts 82°
2026-05-04 21:34 49.00798 2.56398 358 ft 11 kts 120°
2026-05-04 21:34 49.00704 2.56454 358 ft 16 kts 176°
2026-05-04 21:35 49.00621 2.56347 353 ft 18 kts 268°
2026-05-04 21:35 49.00609 2.56141 349 ft 20 kts 265°
2026-05-04 21:35 49.00661 2.56055 347 ft 12 kts 357°
2026-05-04 21:35 49.00675 2.56054 347 ft 0 kts 357°